Year,Month,Day,Hour,Minute,Value (Times are PST for windgust in km/hr)
2010,06,01,00,00,6.40
2010,06,01,00,01,3.20
2010,06,01,00,02,3.20
2010,06,01,00,03,4.80
2010,06,01,00,04,8.10
2010,06,01,00,05,6.40
2010,06,01,00,06,6.40
2010,06,01,00,07,4.80
2010,06,01,00,08,8.10
2010,06,01,00,09,6.40
2010,06,01,00,10,6.40
2010,06,01,00,11,3.20
2010,06,01,00,12,8.10
2010,06,01,00,13,8.10
2010,06,01,00,14,8.10
2010,06,01,00,15,6.40
2010,06,01,00,16,11.30
2010,06,01,00,17,8.10
2010,06,01,00,18,3.20
2010,06,01,00,19,1.60
2010,06,01,00,20,8.10
2010,06,01,00,21,6.40
2010,06,01,00,22,6.40
2010,06,01,00,23,8.10
2010,06,01,00,24,6.40
2010,06,01,00,25,6.40
2010,06,01,00,26,4.80
2010,06,01,00,27,11.30
2010,06,01,00,28,4.80
2010,06,01,00,29,16.10
2010,06,01,00,30,9.60
2010,06,01,00,31,6.40
2010,06,01,00,32,12.90
2010,06,01,00,33,8.10
2010,06,01,00,34,4.80
2010,06,01,00,35,6.40
2010,06,01,00,36,4.80
2010,06,01,00,37,9.60
2010,06,01,00,38,9.60
2010,06,01,00,39,11.30
2010,06,01,00,40,9.60
2010,06,01,00,41,8.10
2010,06,01,00,42,6.40
2010,06,01,00,43,9.60
2010,06,01,00,44,4.80
2010,06,01,00,45,8.10
2010,06,01,00,46,9.60
2010,06,01,00,47,9.60
2010,06,01,00,48,11.30
2010,06,01,00,49,9.60
2010,06,01,00,50,9.60
2010,06,01,00,51,9.60
2010,06,01,00,52,6.40
2010,06,01,00,53,8.10
2010,06,01,00,54,3.20
2010,06,01,00,55,6.40
2010,06,01,00,56,6.40
2010,06,01,00,57,8.10
2010,06,01,00,58,6.40
2010,06,01,00,59,8.10
2010,06,01,01,00,9.60
2010,06,01,01,01,6.40
2010,06,01,01,02,9.60
2010,06,01,01,03,6.40
2010,06,01,01,04,3.20
2010,06,01,01,05,4.80
2010,06,01,01,06,4.80
2010,06,01,01,07,8.10
2010,06,01,01,08,6.40
2010,06,01,01,09,4.80
2010,06,01,01,10,3.20
2010,06,01,01,11,3.20
2010,06,01,01,12,3.20
2010,06,01,01,13,3.20
2010,06,01,01,14,9.60
2010,06,01,01,15,4.80
2010,06,01,01,16,4.80
2010,06,01,01,17,4.80
2010,06,01,01,18,1.60
2010,06,01,01,19,3.20
2010,06,01,01,20,3.20
2010,06,01,01,21,3.20
2010,06,01,01,22,4.80
2010,06,01,01,23,1.60
2010,06,01,01,24,1.60
2010,06,01,01,34,1.60
2010,06,01,01,39,1.60
2010,06,01,01,40,3.20
2010,06,01,01,41,1.60
2010,06,01,01,42,3.20
2010,06,01,01,43,1.60
2010,06,01,01,45,1.60
2010,06,01,01,46,1.60
2010,06,01,01,48,1.60
2010,06,01,01,52,1.60
2010,06,01,01,53,3.20
2010,06,01,01,54,1.60
2010,06,01,01,55,4.80
2010,06,01,01,56,1.60
2010,06,01,01,57,1.60
2010,06,01,01,58,3.20
2010,06,01,01,59,3.20
2010,06,01,02,00,4.80
2010,06,01,02,01,6.40
2010,06,01,02,02,4.80
2010,06,01,02,03,3.20
2010,06,01,02,04,1.60
2010,06,01,02,05,3.20
2010,06,01,02,06,4.80
2010,06,01,02,07,3.20
2010,06,01,02,08,3.20
2010,06,01,02,09,4.80
2010,06,01,02,10,4.80
2010,06,01,02,11,3.20
2010,06,01,02,12,1.60
2010,06,01,02,13,8.10
2010,06,01,02,14,8.10
2010,06,01,02,15,6.40
2010,06,01,02,16,4.80
2010,06,01,02,17,6.40
2010,06,01,02,18,6.40
2010,06,01,02,19,3.20
2010,06,01,02,20,8.10
2010,06,01,02,21,6.40
2010,06,01,02,22,8.10
2010,06,01,02,23,3.20
2010,06,01,02,24,3.20
2010,06,01,02,25,1.60
2010,06,01,02,26,3.20
2010,06,01,02,27,6.40
2010,06,01,02,28,4.80
2010,06,01,02,29,8.10
2010,06,01,02,30,8.10
2010,06,01,02,31,1.60
2010,06,01,02,32,3.20
2010,06,01,02,33,8.10
2010,06,01,02,34,6.40
2010,06,01,02,35,6.40
2010,06,01,02,36,4.80
2010,06,01,02,37,6.40
2010,06,01,02,38,4.80
2010,06,01,02,39,3.20
2010,06,01,02,40,6.40
2010,06,01,02,41,8.10
2010,06,01,02,42,4.80
2010,06,01,02,43,4.80
2010,06,01,02,44,8.10
2010,06,01,02,45,4.80
2010,06,01,02,46,3.20
2010,06,01,02,47,4.80
2010,06,01,02,48,6.40
2010,06,01,02,49,4.80
2010,06,01,02,50,3.20
2010,06,01,02,51,1.60
2010,06,01,02,52,3.20
2010,06,01,02,53,1.60
2010,06,01,02,55,4.80
2010,06,01,02,56,4.80
2010,06,01,02,57,3.20
2010,06,01,02,59,1.60
2010,06,01,03,01,3.20
2010,06,01,03,02,1.60
2010,06,01,03,03,1.60
2010,06,01,03,04,1.60
2010,06,01,03,05,1.60
2010,06,01,03,06,1.60
2010,06,01,03,07,3.20
2010,06,01,03,08,3.20
2010,06,01,03,09,3.20
2010,06,01,03,10,1.60
2010,06,01,03,11,4.80
2010,06,01,03,12,3.20
2010,06,01,03,13,1.60
2010,06,01,03,15,4.80
2010,06,01,03,16,3.20
2010,06,01,03,17,4.80
2010,06,01,03,18,4.80
2010,06,01,03,19,3.20
2010,06,01,03,20,1.60
2010,06,01,03,21,6.40
2010,06,01,03,22,3.20
2010,06,01,03,23,3.20
2010,06,01,03,24,3.20
2010,06,01,03,25,3.20
2010,06,01,03,26,3.20
2010,06,01,03,27,3.20
2010,06,01,03,28,1.60
2010,06,01,03,29,4.80
2010,06,01,03,30,1.60
2010,06,01,03,31,1.60
2010,06,01,03,41,1.60
2010,06,01,03,42,1.60
2010,06,01,03,43,3.20
2010,06,01,03,44,1.60
2010,06,01,03,45,1.60
2010,06,01,03,48,1.60
2010,06,01,03,49,1.60
2010,06,01,03,51,1.60
2010,06,01,03,52,1.60
2010,06,01,03,53,3.20
2010,06,01,03,54,1.60
2010,06,01,03,55,4.80
2010,06,01,03,56,3.20
2010,06,01,03,57,4.80
2010,06,01,03,58,6.40
2010,06,01,03,59,4.80
2010,06,01,04,00,6.40
2010,06,01,04,01,3.20
2010,06,01,04,02,4.80
2010,06,01,04,03,6.40
2010,06,01,04,04,3.20
2010,06,01,04,05,4.80
2010,06,01,04,06,3.20
2010,06,01,04,07,3.20
2010,06,01,04,08,9.60
2010,06,01,04,09,8.10
2010,06,01,04,10,8.10
2010,06,01,04,11,6.40
2010,06,01,04,12,4.80
2010,06,01,04,13,3.20
2010,06,01,04,14,6.40
2010,06,01,04,15,8.10
2010,06,01,04,16,4.80
2010,06,01,04,17,6.40
2010,06,01,04,18,6.40
2010,06,01,04,19,1.60
2010,06,01,04,20,1.60
2010,06,01,04,21,1.60
2010,06,01,04,22,1.60
2010,06,01,04,23,3.20
2010,06,01,04,24,3.20
2010,06,01,04,25,3.20
2010,06,01,04,26,4.80
2010,06,01,04,27,3.20
2010,06,01,04,28,1.60
2010,06,01,04,29,4.80
2010,06,01,04,30,3.20
2010,06,01,04,31,4.80
2010,06,01,04,32,4.80
2010,06,01,04,33,4.80
2010,06,01,04,34,6.40
2010,06,01,04,35,6.40
2010,06,01,04,36,3.20
2010,06,01,04,37,3.20
2010,06,01,04,38,4.80
2010,06,01,04,39,3.20
2010,06,01,04,40,4.80
2010,06,01,04,41,3.20
2010,06,01,04,42,1.60
2010,06,01,04,43,3.20
2010,06,01,04,44,3.20
2010,06,01,04,45,3.20
2010,06,01,04,46,3.20
2010,06,01,04,47,3.20
2010,06,01,04,48,1.60
2010,06,01,04,49,4.80
2010,06,01,04,50,6.40
2010,06,01,04,51,4.80
2010,06,01,04,52,6.40
2010,06,01,04,53,6.40
2010,06,01,04,54,4.80
2010,06,01,04,55,4.80
2010,06,01,04,56,3.20
2010,06,01,04,57,1.60
2010,06,01,04,58,6.40
2010,06,01,04,59,4.80
2010,06,01,05,00,4.80
2010,06,01,05,01,3.20
2010,06,01,05,02,1.60
2010,06,01,05,03,3.20
2010,06,01,05,04,1.60
2010,06,01,05,05,4.80
2010,06,01,05,06,4.80
2010,06,01,05,07,4.80
2010,06,01,05,08,3.20
2010,06,01,05,09,3.20
2010,06,01,05,10,3.20
2010,06,01,05,11,3.20
2010,06,01,05,12,4.80
2010,06,01,05,13,3.20
2010,06,01,05,14,1.60
2010,06,01,05,15,1.60
2010,06,01,05,16,1.60
2010,06,01,05,18,1.60
2010,06,01,05,19,3.20
2010,06,01,05,20,1.60
2010,06,01,05,21,1.60
2010,06,01,05,22,4.80
2010,06,01,05,23,3.20
2010,06,01,05,24,1.60
2010,06,01,05,25,3.20
2010,06,01,05,26,4.80
2010,06,01,05,27,3.20
2010,06,01,05,28,4.80
2010,06,01,05,29,3.20
2010,06,01,05,34,1.60
2010,06,01,05,35,1.60
2010,06,01,05,36,1.60
2010,06,01,05,37,3.20
2010,06,01,05,38,1.60
2010,06,01,05,42,1.60
2010,06,01,05,49,1.60
2010,06,01,05,50,1.60
2010,06,01,05,52,3.20
2010,06,01,05,53,1.60
2010,06,01,05,54,1.60
2010,06,01,05,55,1.60
2010,06,01,05,56,1.60
2010,06,01,05,57,1.60
2010,06,01,05,59,1.60
2010,06,01,06,00,1.60
2010,06,01,06,01,3.20
2010,06,01,06,02,4.80
2010,06,01,06,03,4.80
2010,06,01,06,04,1.60
2010,06,01,06,05,1.60
2010,06,01,06,06,1.60
2010,06,01,06,11,1.60
2010,06,01,06,12,1.60
2010,06,01,06,13,3.20
2010,06,01,06,14,3.20
2010,06,01,06,15,3.20
2010,06,01,06,16,1.60
2010,06,01,06,17,1.60
2010,06,01,06,18,1.60
2010,06,01,06,19,1.60
2010,06,01,06,20,1.60
2010,06,01,06,21,1.60
2010,06,01,06,22,1.60
2010,06,01,06,23,1.60
2010,06,01,06,27,1.60
2010,06,01,06,28,1.60
2010,06,01,06,29,1.60
2010,06,01,06,30,1.60
2010,06,01,06,31,1.60
2010,06,01,06,32,1.60
2010,06,01,06,35,1.60
2010,06,01,06,38,1.60
2010,06,01,06,39,1.60
2010,06,01,06,44,1.60
2010,06,01,06,45,1.60
2010,06,01,06,46,1.60
2010,06,01,06,50,1.60
2010,06,01,06,54,1.60
2010,06,01,06,55,1.60
2010,06,01,07,18,1.60
2010,06,01,07,30,1.60
2010,06,01,07,33,1.60
2010,06,01,07,45,1.60
2010,06,01,07,50,1.60
2010,06,01,07,53,1.60
2010,06,01,07,54,1.60
2010,06,01,07,55,1.60
2010,06,01,07,56,3.20
2010,06,01,07,58,3.20
2010,06,01,07,59,1.60
2010,06,01,08,00,1.60
2010,06,01,08,01,6.40
2010,06,01,08,02,11.30
2010,06,01,08,03,11.30
2010,06,01,08,04,12.90
2010,06,01,08,05,11.30
2010,06,01,08,06,12.90
2010,06,01,08,07,11.30
2010,06,01,08,08,9.60
2010,06,01,08,09,9.60
2010,06,01,08,10,9.60
2010,06,01,08,11,8.10
2010,06,01,08,12,9.60
2010,06,01,08,13,8.10
2010,06,01,08,14,9.60
2010,06,01,08,15,9.60
2010,06,01,08,16,6.40
2010,06,01,08,17,9.60
2010,06,01,08,18,6.40
2010,06,01,08,19,11.30
2010,06,01,08,20,8.10
2010,06,01,08,21,8.10
2010,06,01,08,22,9.60
2010,06,01,08,23,9.60
2010,06,01,08,24,6.40
2010,06,01,08,25,6.40
2010,06,01,08,26,8.10
2010,06,01,08,27,9.60
2010,06,01,08,28,8.10
2010,06,01,08,29,6.40
2010,06,01,08,30,6.40
2010,06,01,08,31,9.60
2010,06,01,08,32,8.10
2010,06,01,08,33,3.20
2010,06,01,08,34,1.60
2010,06,01,08,35,11.30
2010,06,01,08,36,9.60
2010,06,01,08,37,11.30
2010,06,01,08,38,12.90
2010,06,01,08,39,9.60
2010,06,01,08,40,9.60
2010,06,01,08,41,9.60
2010,06,01,08,42,9.60
2010,06,01,08,43,9.60
2010,06,01,08,44,11.30
2010,06,01,08,45,9.60
2010,06,01,08,46,8.10
2010,06,01,08,47,11.30
2010,06,01,08,48,14.50
2010,06,01,08,49,11.30
2010,06,01,08,50,9.60
2010,06,01,08,51,9.60
2010,06,01,08,52,6.40
2010,06,01,08,53,8.10
2010,06,01,08,54,9.60
2010,06,01,08,55,9.60
2010,06,01,08,56,8.10
2010,06,01,08,57,6.40
2010,06,01,08,58,12.90
2010,06,01,08,59,9.60
2010,06,01,09,00,6.40
2010,06,01,09,01,11.30
2010,06,01,09,02,9.60
2010,06,01,09,03,14.50
2010,06,01,09,04,8.10
2010,06,01,09,05,3.20
2010,06,01,09,06,8.10
2010,06,01,09,07,9.60
2010,06,01,09,08,9.60
2010,06,01,09,09,11.30
2010,06,01,09,10,9.60
2010,06,01,09,11,9.60
2010,06,01,09,12,8.10
2010,06,01,09,13,3.20
2010,06,01,09,14,8.10
2010,06,01,09,15,9.60
2010,06,01,09,16,11.30
2010,06,01,09,17,11.30
2010,06,01,09,18,9.60
2010,06,01,09,19,8.10
2010,06,01,09,20,8.10
2010,06,01,09,21,11.30
2010,06,01,09,22,8.10
2010,06,01,09,23,8.10
2010,06,01,09,24,8.10
2010,06,01,09,25,12.90
2010,06,01,09,26,11.30
2010,06,01,09,27,9.60
2010,06,01,09,28,6.40
2010,06,01,09,29,3.20
2010,06,01,09,30,8.10
2010,06,01,09,31,9.60
2010,06,01,09,32,9.60
2010,06,01,09,33,12.90
2010,06,01,09,34,12.90
2010,06,01,09,35,9.60
2010,06,01,09,36,6.40
2010,06,01,09,37,9.60
2010,06,01,09,38,14.50
2010,06,01,09,39,8.10
2010,06,01,09,40,6.40
2010,06,01,09,41,8.10
2010,06,01,09,42,8.10
2010,06,01,09,43,6.40
2010,06,01,09,44,8.10
2010,06,01,09,45,4.80
2010,06,01,09,46,6.40
2010,06,01,09,47,14.50
2010,06,01,09,48,11.30
2010,06,01,09,49,9.60
2010,06,01,09,50,9.60
2010,06,01,09,51,11.30
2010,06,01,09,52,8.10
2010,06,01,09,53,9.60
2010,06,01,09,54,8.10
2010,06,01,09,55,8.10
2010,06,01,09,56,6.40
2010,06,01,09,57,8.10
2010,06,01,09,58,14.50
2010,06,01,09,59,9.60
2010,06,01,10,00,9.60
2010,06,01,10,01,9.60
2010,06,01,10,02,14.50
2010,06,01,10,03,9.60
2010,06,01,10,04,12.90
2010,06,01,10,05,12.90
2010,06,01,10,06,12.90
2010,06,01,10,07,11.30
2010,06,01,10,08,9.60
2010,06,01,10,09,11.30
2010,06,01,10,10,14.50
2010,06,01,10,11,11.30
2010,06,01,10,12,14.50
2010,06,01,10,13,14.50
2010,06,01,10,14,9.60
2010,06,01,10,15,12.90
2010,06,01,10,16,14.50
2010,06,01,10,17,12.90
2010,06,01,10,18,9.60
2010,06,01,10,19,11.30
2010,06,01,10,20,14.50
2010,06,01,10,21,14.50
2010,06,01,10,22,12.90
2010,06,01,10,23,9.60
2010,06,01,10,24,12.90
2010,06,01,10,25,11.30
2010,06,01,10,26,11.30
2010,06,01,10,27,9.60
2010,06,01,10,28,14.50
2010,06,01,10,29,11.30
2010,06,01,10,30,12.90
2010,06,01,10,31,9.60
2010,06,01,10,32,12.90
2010,06,01,10,33,14.50
2010,06,01,10,34,12.90
2010,06,01,10,35,8.10
2010,06,01,10,36,8.10
2010,06,01,10,37,14.50
2010,06,01,10,38,12.90
2010,06,01,10,39,9.60
2010,06,01,10,40,12.90
2010,06,01,10,41,16.10
2010,06,01,10,42,14.50
2010,06,01,10,43,8.10
2010,06,01,10,44,14.50
2010,06,01,10,45,11.30
2010,06,01,10,46,3.20
2010,06,01,10,47,4.80
2010,06,01,10,48,9.60
2010,06,01,10,49,14.50
2010,06,01,10,50,12.90
2010,06,01,10,51,11.30
2010,06,01,10,52,14.50
2010,06,01,10,53,14.50
2010,06,01,10,54,11.30
2010,06,01,10,55,9.60
2010,06,01,10,56,11.30
2010,06,01,10,57,11.30
2010,06,01,10,58,14.50
2010,06,01,10,59,11.30
2010,06,01,11,00,11.30
2010,06,01,11,01,12.90
2010,06,01,11,02,17.70
2010,06,01,11,03,12.90
2010,06,01,11,04,14.50
2010,06,01,11,05,14.50
2010,06,01,11,06,14.50
2010,06,01,11,07,12.90
2010,06,01,11,08,6.40
2010,06,01,11,09,14.50
2010,06,01,11,10,17.70
2010,06,01,11,11,14.50
2010,06,01,11,12,16.10
2010,06,01,11,13,19.30
2010,06,01,11,14,12.90
2010,06,01,11,15,11.30
2010,06,01,11,16,12.90
2010,06,01,11,17,12.90
2010,06,01,11,18,12.90
2010,06,01,11,19,12.90
2010,06,01,11,20,17.70
2010,06,01,11,21,14.50
2010,06,01,11,22,11.30
2010,06,01,11,23,9.60
2010,06,01,11,24,12.90
2010,06,01,11,25,14.50
2010,06,01,11,26,12.90
2010,06,01,11,27,14.50
2010,06,01,11,28,11.30
2010,06,01,11,29,11.30
2010,06,01,11,30,9.60
2010,06,01,11,31,12.90
2010,06,01,11,32,9.60
2010,06,01,11,33,11.30
2010,06,01,11,34,9.60
2010,06,01,11,35,11.30
2010,06,01,11,36,11.30
2010,06,01,11,37,19.30
2010,06,01,11,38,12.90
2010,06,01,11,39,8.10
2010,06,01,11,40,6.40
2010,06,01,11,41,17.70
2010,06,01,11,42,16.10
2010,06,01,11,43,16.10
2010,06,01,11,44,12.90
2010,06,01,11,45,19.30
2010,06,01,11,46,12.90
2010,06,01,11,47,17.70
2010,06,01,11,48,17.70
2010,06,01,11,49,14.50
2010,06,01,11,50,14.50
2010,06,01,11,51,17.70
2010,06,01,11,52,17.70
2010,06,01,11,53,14.50
2010,06,01,11,54,11.30
2010,06,01,11,55,14.50
2010,06,01,11,56,19.30
2010,06,01,11,57,14.50
2010,06,01,11,58,14.50
2010,06,01,11,59,12.90
2010,06,01,12,00,14.50
2010,06,01,12,01,9.60
2010,06,01,12,02,12.90
2010,06,01,12,03,12.90
2010,06,01,12,04,19.30
2010,06,01,12,05,9.60
2010,06,01,12,06,12.90
2010,06,01,12,07,14.50
2010,06,01,12,08,12.90
2010,06,01,12,09,19.30
2010,06,01,12,10,12.90
2010,06,01,12,11,8.10
2010,06,01,12,12,9.60
2010,06,01,12,13,14.50
2010,06,01,12,14,12.90
2010,06,01,12,15,14.50
2010,06,01,12,16,14.50
2010,06,01,12,17,19.30
2010,06,01,12,18,14.50
2010,06,01,12,19,11.30
2010,06,01,12,20,14.50
2010,06,01,12,21,14.50
2010,06,01,12,22,8.10
2010,06,01,12,23,3.20
2010,06,01,12,24,8.10
2010,06,01,12,25,9.60
2010,06,01,12,26,11.30
2010,06,01,12,27,9.60
2010,06,01,12,28,9.60
2010,06,01,12,29,8.10
2010,06,01,12,30,9.60
2010,06,01,12,31,14.50
2010,06,01,12,32,14.50
2010,06,01,12,33,11.30
2010,06,01,12,34,14.50
2010,06,01,12,35,12.90
2010,06,01,12,36,14.50
2010,06,01,12,37,17.70
2010,06,01,12,38,11.30
2010,06,01,12,39,16.10
2010,06,01,12,40,17.70
2010,06,01,12,41,12.90
2010,06,01,12,42,14.50
2010,06,01,12,43,9.60
2010,06,01,12,44,12.90
2010,06,01,12,45,3.20
2010,06,01,12,46,8.10
2010,06,01,12,47,12.90
2010,06,01,12,48,12.90
2010,06,01,12,49,14.50
2010,06,01,12,50,11.30
2010,06,01,12,51,12.90
2010,06,01,12,52,11.30
2010,06,01,12,53,8.10
2010,06,01,12,54,17.70
2010,06,01,12,55,17.70
2010,06,01,12,56,17.70
2010,06,01,12,57,9.60
2010,06,01,12,58,17.70
2010,06,01,12,59,17.70
2010,06,01,13,00,14.50
2010,06,01,13,01,12.90
2010,06,01,13,02,16.10
2010,06,01,13,03,11.30
2010,06,01,13,04,11.30
2010,06,01,13,05,12.90
2010,06,01,13,06,14.50
2010,06,01,13,07,11.30
2010,06,01,13,08,11.30
2010,06,01,13,09,11.30
2010,06,01,13,10,14.50
2010,06,01,13,11,14.50
2010,06,01,13,12,14.50
2010,06,01,13,13,12.90
2010,06,01,13,14,11.30
2010,06,01,13,15,14.50
2010,06,01,13,16,8.10
2010,06,01,13,17,6.40
2010,06,01,13,18,12.90
2010,06,01,13,19,9.60
2010,06,01,13,20,14.50
2010,06,01,13,21,12.90
2010,06,01,13,22,9.60
2010,06,01,13,23,6.40
2010,06,01,13,24,9.60
2010,06,01,13,25,12.90
2010,06,01,13,26,16.10
2010,06,01,13,27,11.30
2010,06,01,13,28,11.30
2010,06,01,13,29,11.30
2010,06,01,13,30,12.90
2010,06,01,13,31,12.90
2010,06,01,13,32,11.30
2010,06,01,13,33,11.30
2010,06,01,13,34,11.30
2010,06,01,13,35,11.30
2010,06,01,13,36,12.90
2010,06,01,13,37,11.30
2010,06,01,13,38,12.90
2010,06,01,13,39,11.30
2010,06,01,13,40,9.60
2010,06,01,13,41,8.10
2010,06,01,13,42,9.60
2010,06,01,13,43,12.90
2010,06,01,13,44,12.90
2010,06,01,13,45,12.90
2010,06,01,13,46,19.30
2010,06,01,13,47,14.50
2010,06,01,13,48,11.30
2010,06,01,13,49,12.90
2010,06,01,13,50,19.30
2010,06,01,13,51,14.50
2010,06,01,13,52,11.30
2010,06,01,13,53,19.30
2010,06,01,13,54,19.30
2010,06,01,13,55,19.30
2010,06,01,13,56,19.30
2010,06,01,13,57,11.30
2010,06,01,13,58,3.20
2010,06,01,13,59,12.90
2010,06,01,14,00,17.70
2010,06,01,14,01,14.50
2010,06,01,14,02,11.30
2010,06,01,14,03,9.60
2010,06,01,14,04,9.60
2010,06,01,14,05,19.30
2010,06,01,14,06,22.50
2010,06,01,14,07,14.50
2010,06,01,14,08,12.90
2010,06,01,14,09,12.90
2010,06,01,14,10,17.70
2010,06,01,14,11,19.30
2010,06,01,14,12,11.30
2010,06,01,14,13,19.30
2010,06,01,14,14,22.50
2010,06,01,14,15,17.70
2010,06,01,14,16,12.90
2010,06,01,14,17,11.30
2010,06,01,14,18,12.90
2010,06,01,14,19,19.30
2010,06,01,14,20,12.90
2010,06,01,14,21,16.10
2010,06,01,14,22,14.50
2010,06,01,14,23,12.90
2010,06,01,14,24,8.10
2010,06,01,14,25,12.90
2010,06,01,14,26,14.50
2010,06,01,14,27,14.50
2010,06,01,14,28,16.10
2010,06,01,14,29,16.10
2010,06,01,14,30,16.10
2010,06,01,14,31,11.30
2010,06,01,14,32,14.50
2010,06,01,14,33,12.90
2010,06,01,14,34,14.50
2010,06,01,14,35,17.70
2010,06,01,14,36,11.30
2010,06,01,14,37,12.90
2010,06,01,14,38,12.90
2010,06,01,14,39,16.10
2010,06,01,14,40,12.90
2010,06,01,14,41,12.90
2010,06,01,14,42,14.50
2010,06,01,14,43,11.30
2010,06,01,14,44,11.30
2010,06,01,14,45,9.60
2010,06,01,14,46,16.10
2010,06,01,14,47,14.50
2010,06,01,14,48,19.30
2010,06,01,14,49,12.90
2010,06,01,14,50,14.50
2010,06,01,14,51,14.50
2010,06,01,14,52,8.10
2010,06,01,14,53,9.60
2010,06,01,14,54,9.60
2010,06,01,14,55,9.60
2010,06,01,14,56,12.90
2010,06,01,14,57,20.90
2010,06,01,14,58,16.10
2010,06,01,14,59,12.90
2010,06,01,15,00,9.60
2010,06,01,15,01,12.90
2010,06,01,15,02,14.50
2010,06,01,15,03,11.30
2010,06,01,15,04,9.60
2010,06,01,15,05,17.70
2010,06,01,15,06,12.90
2010,06,01,15,07,14.50
2010,06,01,15,08,11.30
2010,06,01,15,09,12.90
2010,06,01,15,10,9.60
2010,06,01,15,11,11.30
2010,06,01,15,12,11.30
2010,06,01,15,13,11.30
2010,06,01,15,14,16.10
2010,06,01,15,15,9.60
2010,06,01,15,16,14.50
2010,06,01,15,17,14.50
2010,06,01,15,18,14.50
2010,06,01,15,19,12.90
2010,06,01,15,20,11.30
2010,06,01,15,21,11.30
2010,06,01,15,22,17.70
2010,06,01,15,23,11.30
2010,06,01,15,24,9.60
2010,06,01,15,25,11.30
2010,06,01,15,26,9.60
2010,06,01,15,27,6.40
2010,06,01,15,28,17.70
2010,06,01,15,29,11.30
2010,06,01,15,30,9.60
2010,06,01,15,31,12.90
2010,06,01,15,32,11.30
2010,06,01,15,33,11.30
2010,06,01,15,34,12.90
2010,06,01,15,35,17.70
2010,06,01,15,36,11.30
2010,06,01,15,37,11.30
2010,06,01,15,38,11.30
2010,06,01,15,39,6.40
2010,06,01,15,40,12.90
2010,06,01,15,41,12.90
2010,06,01,15,42,11.30
2010,06,01,15,43,8.10
2010,06,01,15,44,6.40
2010,06,01,15,45,8.10
2010,06,01,15,46,11.30
2010,06,01,15,47,11.30
2010,06,01,15,48,12.90
2010,06,01,15,49,8.10
2010,06,01,15,50,6.40
2010,06,01,15,51,9.60
2010,06,01,15,52,11.30
2010,06,01,15,53,9.60
2010,06,01,15,54,12.90
2010,06,01,15,55,8.10
2010,06,01,15,56,9.60
2010,06,01,15,57,9.60
2010,06,01,15,58,4.80
2010,06,01,15,59,9.60
2010,06,01,16,00,4.80
2010,06,01,16,01,9.60
2010,06,01,16,02,14.50
2010,06,01,16,03,12.90
2010,06,01,16,04,9.60
2010,06,01,16,05,6.40
2010,06,01,16,06,9.60
2010,06,01,16,07,11.30
2010,06,01,16,08,9.60
2010,06,01,16,09,11.30
2010,06,01,16,10,6.40
2010,06,01,16,11,11.30
2010,06,01,16,12,11.30
2010,06,01,16,13,8.10
2010,06,01,16,14,4.80
2010,06,01,16,15,8.10
2010,06,01,16,16,9.60
2010,06,01,16,17,8.10
2010,06,01,16,18,4.80
2010,06,01,16,19,8.10
2010,06,01,16,20,11.30
2010,06,01,16,21,17.70
2010,06,01,16,22,12.90
2010,06,01,16,23,12.90
2010,06,01,16,24,12.90
2010,06,01,16,25,11.30
2010,06,01,16,26,8.10
2010,06,01,16,27,8.10
2010,06,01,16,28,6.40
2010,06,01,16,29,11.30
2010,06,01,16,30,8.10
2010,06,01,16,31,8.10
2010,06,01,16,32,8.10
2010,06,01,16,33,3.20
2010,06,01,16,34,1.60
2010,06,01,16,35,6.40
2010,06,01,16,36,8.10
2010,06,01,16,37,6.40
2010,06,01,16,38,6.40
2010,06,01,16,39,6.40
2010,06,01,16,40,6.40
2010,06,01,16,41,3.20
2010,06,01,16,42,8.10
2010,06,01,16,43,8.10
2010,06,01,16,44,8.10
2010,06,01,16,45,11.30
2010,06,01,16,46,11.30
2010,06,01,16,47,8.10
2010,06,01,16,48,9.60
2010,06,01,16,49,8.10
2010,06,01,16,50,6.40
2010,06,01,16,51,8.10
2010,06,01,16,52,9.60
2010,06,01,16,53,8.10
2010,06,01,16,54,9.60
2010,06,01,16,55,11.30
2010,06,01,16,56,9.60
2010,06,01,16,57,6.40
2010,06,01,16,58,3.20
2010,06,01,16,59,6.40
2010,06,01,17,00,11.30
2010,06,01,17,01,6.40
2010,06,01,17,02,8.10
2010,06,01,17,03,8.10
2010,06,01,17,04,4.80
2010,06,01,17,05,8.10
2010,06,01,17,06,8.10
2010,06,01,17,07,12.90
2010,06,01,17,08,11.30
2010,06,01,17,09,8.10
2010,06,01,17,10,12.90
2010,06,01,17,11,11.30
2010,06,01,17,12,9.60
2010,06,01,17,13,9.60
2010,06,01,17,14,9.60
2010,06,01,17,15,9.60
2010,06,01,17,16,8.10
2010,06,01,17,17,8.10
2010,06,01,17,18,8.10
2010,06,01,17,19,6.40
2010,06,01,17,20,8.10
2010,06,01,17,21,11.30
2010,06,01,17,22,17.70
2010,06,01,17,23,8.10
2010,06,01,17,24,12.90
2010,06,01,17,25,11.30
2010,06,01,17,26,17.70
2010,06,01,17,27,17.70
2010,06,01,17,28,12.90
2010,06,01,17,29,12.90
2010,06,01,17,30,11.30
2010,06,01,17,31,11.30
2010,06,01,17,32,12.90
2010,06,01,17,33,11.30
2010,06,01,17,34,11.30
2010,06,01,17,35,11.30
2010,06,01,17,36,9.60
2010,06,01,17,37,8.10
2010,06,01,17,38,8.10
2010,06,01,17,39,6.40
2010,06,01,17,40,8.10
2010,06,01,17,41,8.10
2010,06,01,17,42,8.10
2010,06,01,17,43,8.10
2010,06,01,17,44,12.90
2010,06,01,17,45,9.60
2010,06,01,17,46,9.60
2010,06,01,17,47,11.30
2010,06,01,17,48,9.60
2010,06,01,17,49,9.60
2010,06,01,17,50,6.40
2010,06,01,17,51,12.90
2010,06,01,17,52,12.90
2010,06,01,17,53,8.10
2010,06,01,17,54,11.30
2010,06,01,17,55,6.40
2010,06,01,17,56,8.10
2010,06,01,17,57,8.10
2010,06,01,17,58,9.60
2010,06,01,17,59,9.60
2010,06,01,18,00,9.60
2010,06,01,18,01,9.60
2010,06,01,18,02,12.90
2010,06,01,18,03,11.30
2010,06,01,18,04,11.30
2010,06,01,18,05,8.10
2010,06,01,18,06,8.10
2010,06,01,18,07,8.10
2010,06,01,18,08,8.10
2010,06,01,18,09,6.40
2010,06,01,18,10,14.50
2010,06,01,18,11,12.90
2010,06,01,18,12,16.10
2010,06,01,18,13,16.10
2010,06,01,18,14,6.40
2010,06,01,18,15,8.10
2010,06,01,18,16,6.40
2010,06,01,18,17,6.40
2010,06,01,18,18,6.40
2010,06,01,18,19,9.60
2010,06,01,18,20,9.60
2010,06,01,18,21,11.30
2010,06,01,18,22,11.30
2010,06,01,18,23,8.10
2010,06,01,18,24,8.10
2010,06,01,18,25,11.30
2010,06,01,18,26,9.60
2010,06,01,18,27,8.10
2010,06,01,18,28,6.40
2010,06,01,18,29,8.10
2010,06,01,18,30,6.40
2010,06,01,18,31,6.40
2010,06,01,18,32,8.10
2010,06,01,18,33,8.10
2010,06,01,18,34,9.60
2010,06,01,18,35,8.10
2010,06,01,18,36,11.30
2010,06,01,18,37,12.90
2010,06,01,18,38,12.90
2010,06,01,18,39,14.50
2010,06,01,18,40,8.10
2010,06,01,18,41,8.10
2010,06,01,18,42,9.60
2010,06,01,18,43,8.10
2010,06,01,18,44,6.40
2010,06,01,18,45,6.40
2010,06,01,18,46,4.80
2010,06,01,18,47,8.10
2010,06,01,18,48,11.30
2010,06,01,18,49,16.10
2010,06,01,18,50,9.60
2010,06,01,18,51,9.60
2010,06,01,18,52,17.70
2010,06,01,18,53,11.30
2010,06,01,18,54,19.30
2010,06,01,18,55,17.70
2010,06,01,18,56,11.30
2010,06,01,18,57,9.60
2010,06,01,18,58,8.10
2010,06,01,18,59,9.60
2010,06,01,19,00,8.10
2010,06,01,19,01,9.60
2010,06,01,19,02,17.70
2010,06,01,19,03,17.70
2010,06,01,19,04,11.30
2010,06,01,19,05,8.10
2010,06,01,19,06,8.10
2010,06,01,19,07,11.30
2010,06,01,19,08,11.30
2010,06,01,19,09,9.60
2010,06,01,19,10,14.50
2010,06,01,19,11,19.30
2010,06,01,19,12,12.90
2010,06,01,19,13,11.30
2010,06,01,19,14,11.30
2010,06,01,19,15,14.50
2010,06,01,19,16,14.50
2010,06,01,19,17,19.30
2010,06,01,19,18,17.70
2010,06,01,19,19,20.90
2010,06,01,19,20,9.60
2010,06,01,19,21,24.20
2010,06,01,19,22,20.90
2010,06,01,19,23,14.50
2010,06,01,19,24,11.30
2010,06,01,19,25,22.50
2010,06,01,19,26,14.50
2010,06,01,19,27,12.90
2010,06,01,19,28,19.30
2010,06,01,19,29,19.30
2010,06,01,19,30,14.50
2010,06,01,19,31,11.30
2010,06,01,19,32,17.70
2010,06,01,19,33,20.90
2010,06,01,19,34,19.30
2010,06,01,19,35,12.90
2010,06,01,19,36,19.30
2010,06,01,19,37,22.50
2010,06,01,19,38,17.70
2010,06,01,19,39,20.90
2010,06,01,19,40,16.10
2010,06,01,19,41,11.30
2010,06,01,19,42,11.30
2010,06,01,19,43,16.10
2010,06,01,19,44,19.30
2010,06,01,19,45,14.50
2010,06,01,19,46,16.10
2010,06,01,19,47,19.30
2010,06,01,19,48,12.90
2010,06,01,19,49,14.50
2010,06,01,19,50,11.30
2010,06,01,19,51,16.10